KD7RJ Weather Reports


time (UTC)temp
F
wind
direction
speed
knots
gust
knots
rain 1hr
in
rain 24hr
in
rain mn
in
humidity
%
barometer
mb
20260905014541 63 237 0.0 0.0 0.00 0.01 0.01 77 1013.6
20260905013047 63 237 0.0 0.0 0.00 0.01 0.01 75 1013.5
20260905011520 64 237 0.0 0.0 0.00 0.01 0.01 75 1013.3
20260905010019 64 237 0.0 2.6 0.00 0.01 0.01 76 1013.2
20260905004502 64 190 0.0 4.3 0.00 0.01 0.01 74 1013.1
20260905003002 63 186 0.0 0.0 0.00 0.01 0.01 77 1013.2
20260905001554 64 186 0.0 1.7 0.00 0.01 0.01 72 1013.2
20260905000049 65 177 0.0 7.0 0.00 0.01 0.01 65 1013.2
20260904234524 65 159 0.9 6.1 0.00 0.02 0.01 64 1013.1
20260904233024 65 172 2.6 7.0 0.00 0.02 0.01 65 1013.0
20260904231504 66 188 3.5 8.7 0.00 0.02 0.01 64 1012.9
20260904230002 66 196 1.7 9.6 0.00 0.02 0.01 63 1012.7
20260904224543 67 184 2.6 9.6 0.01 0.02 0.01 61 1012.5
20260904223043 68 148 0.0 10.4 0.01 0.02 0.01 60 1012.5
20260904221525 69 220 4.3 9.6 0.01 0.02 0.01 57 1012.5
20260904220025 69 173 2.6 8.7 0.01 0.02 0.01 58 1012.5
20260904214504 68 193 2.6 7.8 0.00 0.01 0.00 62 1012.5
20260904213101 66 186 5.2 9.6 0.00 0.01 0.00 67 1012.5
20260904211544 66 68 0.0 3.5 0.00 0.01 0.00 70 1012.2
20260904210040 66 63 0.0 4.3 0.00 0.01 0.00 70 1011.9
20260904204520 65 71 0.0 2.6 0.00 0.01 0.00 72 1012.0
20260904203029 65 71 0.0 3.5 0.00 0.01 0.00 74 1012.0
20260904201600 64 51 0.0 4.3 0.00 0.01 0.00 73 1012.0
20260904200105 63 52 0.9 4.3 0.00 0.01 0.00 77 1012.2
20260904194538 63 53 0.9 4.3 0.00 0.01 0.00 80 1012.3
20260904193036 63 42 0.9 5.2 0.00 0.01 0.00 80 1012.4
20260904191517 62 42 0.9 5.2 0.00 0.01 0.00 82 1012.5
20260904190016 62 51 1.7 6.1 0.00 0.01 0.00 82 1012.6
20260904184613 62 48 2.6 4.3 0.00 0.02 0.00 83 1012.4
20260904183053 61 46 0.9 3.5 0.00 0.02 0.00 84 1012.3
20260904181537 60 45 0.9 6.1 0.00 0.02 0.00 87 1012.3
20260904180045 60 74 0.9 7.0 0.00 0.02 0.00 87 1012.2
20260904174514 59 80 0.0 0.0 0.00 0.02 0.00 89 1012.2
20260904173018 58 80 0.0 4.3 0.00 0.02 0.00 89 1012.1
20260904171617 58 80 0.0 3.5 0.00 0.02 0.00 89 1012.1
20260904170052 58 80 1.7 6.1 0.00 0.02 0.00 88 1011.9
20260904164532 58 84 0.0 2.6 0.00 0.02 0.00 89 1011.8
20260904163032 57 84 0.9 5.2 0.00 0.02 0.00 90 1011.8
20260904161515 57 85 0.0 0.0 0.00 0.02 0.00 92 1011.7
20260904160017 56 85 0.9 5.2 0.00 0.02 0.00 93 1011.7
20260904154556 56 86 0.0 4.3 0.00 0.03 0.00 94 1011.7
20260904153059 55 84 0.0 5.2 0.00 0.03 0.00 94 1011.7
20260904151535 54 84 0.0 0.0 0.00 0.03 0.00 94 1011.5
20260904150034 54 84 0.0 0.9 0.00 0.03 0.00 94 1011.2
20260904144515 54 84 0.0 0.0 0.00 0.03 0.00 94 1011.0
20260904143016 54 84 0.0 0.0 0.00 0.03 0.00 94 1010.9
20260904141555 54 84 0.0 0.0 0.00 0.03 0.00 95 1010.8
20260904140054 54 84 0.0 0.0 0.00 0.03 0.00 94 1010.7
20260904134544 54 84 0.0 5.2 0.00 0.03 0.00 95 1010.6
20260904133051 54 94 0.0 4.3 0.00 0.03 0.00 95 1010.4
20260904131512 54 95 0.9 5.2 0.00 0.03 0.00 95 1010.3
20260904130012 54 107 0.0 3.5 0.00 0.03 0.00 95 1010.3
20260904124601 54 107 0.0 1.7 0.00 0.03 0.00 95 1010.3
20260904123054 55 107 0.0 0.0 0.00 0.03 0.00 94 1010.2
20260904121536 55 107 0.0 0.0 0.00 0.03 0.00 94 1010.2
20260904120051 55 107 0.0 2.6 0.00 0.03 0.00 94 1010.1
20260904114514 55 107 0.0 0.0 0.00 0.03 0.00 93 1010.0
20260904113012 55 107 0.0 0.0 0.00 0.03 0.00 93 1009.8
20260904111555 55 107 0.0 0.0 0.00 0.03 0.00 93 1009.6
20260904110053 55 107 0.0 0.0 0.00 0.03 0.00 93 1009.6
20260904104559 55 107 0.0 0.0 0.00 0.03 0.00 93 1009.5
20260904103035 55 107 0.0 2.6 0.00 0.03 0.00 93 1009.5
20260904101519 55 113 0.0 2.6 0.00 0.03 0.00 93 1009.4
20260904100015 55 113 0.0 0.0 0.00 0.03 0.00 93 1009.4
20260904094618 55 134 0.0 3.5 0.00 0.03 0.00 93 1009.3
20260904093103 55 169 0.0 2.6 0.00 0.03 0.00 93 1009.2
20260904091556 54 169 0.0 0.0 0.00 0.03 0.00 93 1009.1
20260904090038 55 169 0.0 0.0 0.00 0.03 0.00 93 1009.0
20260904084537 55 169 0.0 0.0 0.00 0.03 0.00 93 1009.2
20260904083018 55 169 0.0 0.0 0.00 0.03 0.00 92 1009.2
20260904081518 55 169 0.0 0.0 0.00 0.03 0.00 92 1009.2
20260904080133 55 169 0.0 0.0 0.00 0.03 0.00 92 1009.1
20260904074608 55 169 0.0 0.0 0.00 0.04 0.00 92 1009.2
20260904073041 55 169 0.0 0.0 0.00 0.04 0.00 91 1009.2
20260904071542 55 169 0.0 0.0 0.00 0.04 0.00 91 1009.2
20260904070037 55 169 0.0 0.0 0.00 0.04 0.00 90 1009.1
20260904064522 55 169 0.0 0.0 0.00 0.04 0.00 90 1009.1
20260904063004 55 169 0.0 0.0 0.00 0.04 0.00 90 1009.1
20260904061507 55 169 0.0 0.0 0.00 0.04 0.00 90 1009.2
20260904060112 56 169 0.0 0.0 0.00 0.04 0.00 90 1009.2
20260904054543 56 169 0.0 0.0 0.00 0.04 0.00 89 1009.3
20260904053043 56 169 0.0 0.0 0.00 0.04 0.00 89 1009.2
20260904051523 57 169 0.0 0.0 0.00 0.04 0.00 88 1009.4
20260904050013 57 169 0.0 0.0 0.00 0.04 0.00 87 1009.4
20260904044510 57 169 0.0 0.0 0.00 0.04 0.00 88 1009.3
20260904043048 57 169 0.0 0.0 0.00 0.04 0.00 87 1009.3
20260904041547 57 169 0.0 0.0 0.00 0.04 0.00 88 1009.3
20260904040027 57 169 0.0 0.0 0.00 0.04 0.00 88 1009.4
20260904034526 57 169 0.0 0.0 0.00 0.04 0.00 87 1009.2
20260904033006 57 169 0.0 0.0 0.00 0.04 0.00 87 1009.1
20260904031504 57 169 0.0 0.0 0.00 0.04 0.00 86 1008.9
20260904030045 57 169 0.0 0.0 0.00 0.04 0.00 85 1008.8
20260904024544 58 169 0.0 0.0 0.00 0.04 0.00 83 1008.6
20260904023022 58 169 0.0 0.0 0.00 0.04 0.00 81 1008.6
20260904021523 59 169 0.0 0.0 0.00 0.04 0.00 81 1008.6
20260904020002 59 169 0.0 0.0 0.00 0.04 0.00 80 1008.6